Location: Aufkirchen
(47.9603°N, 11.3653°E)
Time: 22:47:02
(UTC+02:00)

Altair - Pass Details

Date: 06 August 2021
Orbit: 1501 x 1682 km, 47.2° (Epoch: 22 September)

Event Time Altitude Azimuth Distance (km) Brightness Sun altitude
Exits shadow 03:56:54 - 262° (W) 3,902 9.2 -16.5°
Reaches altitude 10° 03:57:25 10° 262° (W) 3,736 9.1 -16.5°
Maximum altitude 04:06:51 86° 175° (S) 1,525 7.4 -15.5°
Drops below altitude 10° 04:16:03 10° 88° (E) 3,654 10.1 -14.4°
Sets 04:19:03 0° 88° (E) 4,634 10.8 -14.1°
